STARLINK-33776, 63851

Orbit data source: Space-Track

STARLINK-33776, 63851 is a payload satellite owned by SpaceX/Seattle (US) in LEO that was launched on Wed, 07 May 2025 UTC via an FALCON 9 launch vehicle from the Air Force Eastern Test Range (AFETR). Payload-class satellites include a variety of spacecraft equipped with specific instruments for various scientific and technological missions. These include communications satellites like Starlink; space stations such as the ISS; scientific satellites like the Hubble; Earth observation satellites from companies like Planet Labs, Umbra, and HawkEye 360; GPS; miniature CubeSats for education and research; and military/defense satellites.

Loading next visibility...
Identifier
63851, 2025-093R
Orbit
LEO
Country
Flag of USUS
Related business
Manufacturer
SpaceX/Seattle
Mission
Operational Commercial Communications
Bus & Motor
STARLINK V2MO, Unknown motor
Mass
575 kg wet, ~530 kg dry
Launch date (UTC)
2025-05-07 (7 months ago)
Launch vehicle
FALCON 9
Launch site
Air Force Eastern Test Range (AFETR)
Object type
Payload
Rocket body
Debris
Shape & HBR
Box + 2 Pan, 17.7 m
Radar Cross Section
36.964 m², Large (>1 m²)

Expand to show TLE details & history
Last TLE update: 6 hours ago

TLE from 6 hours ago
0 STARLINK-33776
1 63851U 25093R   25349.92441467  .00022529  00000-0  82531-3 0  9994
2 63851  42.9975 190.7609 0001663 272.2276  87.8385 15.27595345 35156
Epoch: 2025-12-15T22:11Z
TLE epoch observation values (Epoch: 2025-12-15T22:11:09.427Z)
Latitude
-0.00003°
Longitude
133.15559°
Altitude
482.735 km
Speed
7.626 km/s
True Right ascension
12h 43m 02s
True Declination
0° 00' 00"
Sunlit
Object was in daylight at epoch
Visualization orbit readout
Latitude
Unknown
Longitude
Unknown
Altitude
Unknown
Speed
Unknown
Apparent Right ascension
Unknown
Apparent Declination
Unknown
Sunlit
N/A
Visualization observer readout
Local Sidereal Time
03:12:44
Azimuth
Unknown
Elevation
Unknown
Doppler factor
Unknown
Orbital elements
Apogee altitude
486.09 km
Perigee altitude
483.807 km
Semi-major axis
6,863.086 km
Eccentricity
0.00017
Inclination
42.9975°
RAAN
190.7609°
Arg. of periapsis
272.2276°
True anomaly
87.85754°
Mean anomaly
87.8385°
Eccentric anomaly
87.84802°
Mean motion
3.81737 °/min
Orbital period
94.31 mins
BSTAR
0.00082531
Loading maneuver chart data...
Computing Atmospheric mass density...
Loading historical data...
Loading historical data...
Loading historical data...
Loading historical data...
Loading historical data...
Loading historical data...
Loading historical data...

Documentation

Showing up to 5 results
|